Вернуться в каталог

SL-16 DEB

АктивенLEO
NORAD 24300·DEBRIS·🇷🇺 Russia

Запущен Sep 4, 1996 с Baikonur Cosmodrome

Loading…

Ближайшие Пролёты (ближайшие 24 часа)

TLE

СвежийSource: Space-Track

Эпоха: Sep 14, 2026, 13:44 UTC

1 24300U 96051D   26257.57255855  .00000065  00000-0  98978-4 0  9990
2 24300  71.0270 296.3649 0196799 318.1095 115.1400 13.74799510505575

Отслеживайте SL-16 DEB в реальном времени с AllMySat

Download on the App Store